Weather History for Kaiser, MO

Change the Weather History Date:

Sunday, January 20, 2013

  Actual Average Record
Temperature  
Mean Temperature 34 °F -  
Max Temperature 44 °F 39 °F 62 °F (2005)
Min Temperature 24 °F 21 °F 1 °F (2008)
Degree Days  
Heating Degree Days 31    
Moisture  
Dew Point 15 °F    
Average Humidity 47    
Maximum Humidity 65    
Minimum Humidity 33    
Precipitation  
Precipitation 0.00 in - - ()
Sea Level Pressure  
Sea Level Pressure 30.29 in    
Wind  
Wind Speed 5 mph (NNE)    
Max Wind Speed 12 mph    
Max Gust Speed -    
Visibility 10 miles    
Events      
Averages and records for this station are not official NWS values.
T = Trace of Precipitation, MM = Missing Value Source: NWS Daily Summary

Daily Weather History Graph

Daily Weather History Graph

Search for Another Location

Airport:

Trip Planner

Search our weather history database for the weather conditions in past years. The results will help you decide how hot, cold, wet, or windy it might be!

Date:

Astronomy

Jan. 20, 2013 Rise Set
Actual Time 7:22 AM CST 5:20 PM CST
Civil Twilight 6:54 AM CST 5:48 PM CST
Nautical Twilight 6:22 AM CST 6:20 PM CST
Astronomical Twilight 5:50 AM CST 6:52 PM CST
Moon 12:21 PM CST (1/20) 1:56 AM CST (1/20)
Length of Visible Light 10h 54m
Length of Day
9h 57m
Waxing Gibbous, 66% of the Moon is Illuminated
Jan 20
Waxing Gibbous
Jan 26
Full
Feb 3
Last Quarter
Feb 10
New
Feb 17
First Quarter

Hourly Weather History & Observations

Time (CST) Temp. Windchill Dew Point Humidity Pressure Visibility Wind Dir Wind Speed Gust Speed Precip Events Conditions
12:15 AM 44.6 °F 43.1 °F 26.6 °F 49% 30.22 in 10.0 mi North 3.5 mph - N/A   Unknown
12:35 AM 44.6 °F - 24.8 °F 46% 30.23 in 10.0 mi Calm Calm - N/A   Unknown
12:55 AM 44.6 °F - 26.6 °F 49% 30.23 in 10.0 mi Calm Calm - N/A   Unknown
1:15 AM 41.0 °F 39.0 °F 24.8 °F 53% 30.24 in 10.0 mi North 3.5 mph - N/A   Unknown
1:35 AM 41.0 °F 38.0 °F 26.6 °F 57% 30.24 in 10.0 mi North 4.6 mph - N/A   Unknown
1:55 AM 39.2 °F 35.9 °F 26.6 °F 61% 30.26 in 10.0 mi North 4.6 mph - N/A   Unknown
2:15 AM 39.2 °F 35.0 °F 26.6 °F 61% 30.26 in 10.0 mi NNW 5.8 mph - N/A   Unknown
2:35 AM 39.2 °F 35.9 °F 26.6 °F 61% 30.27 in 10.0 mi North 4.6 mph - N/A   Unknown
2:55 AM 39.2 °F 33.6 °F 26.6 °F 61% 30.29 in 10.0 mi NNW 8.1 mph - N/A   Unknown
3:15 AM 37.4 °F 34.9 °F 26.6 °F 65% 30.29 in 10.0 mi North 3.5 mph - N/A   Unknown
3:35 AM 37.4 °F - 26.6 °F 65% 30.29 in 10.0 mi Calm Calm - N/A   Unknown
3:55 AM 35.6 °F 32.8 °F 24.8 °F 65% 30.28 in 10.0 mi NW 3.5 mph - N/A   Unknown
4:15 AM 35.6 °F 32.8 °F 24.8 °F 65% 30.28 in 10.0 mi NW 3.5 mph - N/A   Unknown
4:35 AM 33.8 °F 29.6 °F 19.4 °F 56% 30.29 in 10.0 mi NNW 4.6 mph - N/A   Unknown
4:55 AM 33.8 °F 30.8 °F 17.6 °F 52% 30.29 in 10.0 mi North 3.5 mph - N/A   Unknown
5:15 AM 33.8 °F 30.8 °F 17.6 °F 52% 30.29 in 10.0 mi NNW 3.5 mph - N/A   Unknown
5:35 AM 32.0 °F 28.7 °F 17.6 °F 55% 30.29 in 10.0 mi North 3.5 mph - N/A   Unknown
5:55 AM 30.2 °F 25.4 °F 17.6 °F 60% 30.30 in 10.0 mi NNW 4.6 mph - N/A   Unknown
6:15 AM 30.2 °F 25.4 °F 15.8 °F 55% 30.30 in 10.0 mi North 4.6 mph - N/A   Unknown
6:35 AM 30.2 °F 23.4 °F 12.2 °F 47% 30.31 in 10.0 mi NNE 6.9 mph - N/A   Unknown
6:55 AM 28.4 °F 22.2 °F 14.0 °F 55% 30.31 in 10.0 mi North 5.8 mph - N/A   Unknown
7:15 AM 28.4 °F 21.2 °F 14.0 °F 55% 30.32 in 10.0 mi North 6.9 mph - N/A   Unknown
7:35 AM 28.4 °F 23.3 °F 12.2 °F 51% 30.32 in 10.0 mi North 4.6 mph - N/A   Unknown
7:55 AM 28.4 °F 23.3 °F 12.2 °F 51% 30.31 in 10.0 mi NNE 4.6 mph - N/A   Unknown
8:15 AM 28.4 °F 23.3 °F 12.2 °F 51% 30.32 in 10.0 mi North 4.6 mph - N/A   Unknown
8:35 AM 28.4 °F 22.2 °F 12.2 °F 51% 30.33 in 10.0 mi NNE 5.8 mph - N/A   Unknown
8:55 AM 30.2 °F 22.6 °F 12.2 °F 47% 30.33 in 10.0 mi NE 8.1 mph - N/A   Unknown
9:15 AM 30.2 °F 24.3 °F 12.2 °F 47% 30.34 in 10.0 mi NNE 5.8 mph - N/A   Unknown
9:35 AM 30.2 °F 23.4 °F 12.2 °F 47% 30.34 in 10.0 mi ENE 6.9 mph - N/A   Unknown
9:55 AM 30.2 °F 23.4 °F 12.2 °F 47% 30.34 in 10.0 mi NE 6.9 mph - N/A   Unknown
10:15 AM 32.0 °F 24.8 °F 12.2 °F 44% 30.34 in 10.0 mi East 8.1 mph - N/A   Unknown
10:35 AM 33.8 °F 28.6 °F 14.0 °F 44% 30.34 in 10.0 mi ENE 5.8 mph - N/A   Unknown
10:55 AM 33.8 °F 30.8 °F 14.0 °F 44% 30.33 in 10.0 mi NE 3.5 mph - N/A   Unknown
11:15 AM 35.6 °F 31.7 °F 14.0 °F 41% 30.32 in 10.0 mi ESE 4.6 mph - N/A   Unknown
11:35 AM 35.6 °F 31.7 °F 15.8 °F 44% 30.32 in 10.0 mi West 4.6 mph - N/A   Unknown
11:55 AM 37.4 °F 32.8 °F 12.2 °F 36% 30.31 in 10.0 mi NE 5.8 mph - N/A   Unknown
12:15 PM 37.4 °F 32.1 °F 14.0 °F 38% 30.29 in 10.0 mi East 6.9 mph - N/A   Unknown
12:35 PM 39.2 °F 35.9 °F 15.8 °F 39% 30.28 in 10.0 mi NNE 4.6 mph - N/A   Unknown
12:55 PM 39.2 °F 35.9 °F 14.0 °F 36% 30.27 in 10.0 mi NE 4.6 mph - N/A   Unknown
1:15 PM 39.2 °F 35.9 °F 14.0 °F 36% 30.26 in 10.0 mi North 4.6 mph - N/A   Unknown
1:35 PM 39.2 °F 32.0 °F 15.8 °F 39% 30.26 in 10.0 mi NE 11.5 mph - N/A   Unknown
1:55 PM 39.2 °F 34.2 °F 14.0 °F 36% 30.26 in 10.0 mi North 6.9 mph - N/A   Unknown
2:15 PM 41.0 °F 35.2 °F 14.0 °F 33% 30.26 in 10.0 mi NE 9.2 mph - N/A   Unknown
2:35 PM 41.0 °F 38.0 °F 15.8 °F 36% 30.26 in 10.0 mi East 4.6 mph - N/A   Unknown
2:55 PM 41.0 °F 35.8 °F 15.8 °F 36% 30.26 in 10.0 mi NNE 8.1 mph - N/A   Unknown
3:15 PM 41.0 °F 35.8 °F 15.8 °F 36% 30.26 in 10.0 mi ENE 8.1 mph - N/A   Unknown
3:35 PM 41.0 °F 37.1 °F 15.8 °F 36% 30.26 in 10.0 mi NNE 5.8 mph - N/A   Unknown
3:55 PM 39.2 °F 33.0 °F 15.8 °F 39% 30.27 in 10.0 mi NE 9.2 mph - N/A   Unknown
4:15 PM 39.2 °F 34.2 °F 14.0 °F 36% 30.27 in 10.0 mi NE 6.9 mph - N/A   Unknown
4:35 PM 39.2 °F 34.2 °F 15.8 °F 39% 30.27 in 10.0 mi NNE 6.9 mph - N/A   Unknown
4:55 PM 37.4 °F 30.8 °F 12.2 °F 36% 30.27 in 10.0 mi NE 9.2 mph - N/A   Unknown
5:15 PM 35.6 °F 29.9 °F 10.4 °F 35% 30.27 in 10.0 mi NE 6.9 mph - N/A   Unknown
5:35 PM 35.6 °F 29.2 °F 8.6 °F 33% 30.28 in 10.0 mi NE 8.1 mph - N/A   Unknown
5:55 PM 33.8 °F 28.6 °F 8.6 °F 35% 30.28 in 10.0 mi NNE 5.8 mph - N/A   Unknown
6:15 PM 33.8 °F 27.7 °F 10.4 °F 38% 30.28 in 10.0 mi NNE 6.9 mph - N/A   Unknown
6:35 PM 30.2 °F 22.6 °F 12.2 °F 47% 30.29 in 10.0 mi NNE 8.1 mph - N/A   Unknown
6:55 PM 30.2 °F 21.9 °F 12.2 °F 47% 30.28 in 10.0 mi NNE 9.2 mph - N/A   Unknown
7:15 PM 30.2 °F 24.3 °F 10.4 °F 44% 30.29 in 10.0 mi NNE 5.8 mph - N/A   Unknown
7:35 PM 30.2 °F 24.3 °F 10.4 °F 44% 30.29 in 10.0 mi NNE 5.8 mph - N/A   Unknown
7:55 PM 28.4 °F 21.2 °F 10.4 °F 47% 30.30 in 10.0 mi NNE 6.9 mph - N/A   Unknown
8:15 PM 28.4 °F 23.3 °F 10.4 °F 47% 30.31 in 10.0 mi North 4.6 mph - N/A   Unknown
8:35 PM 28.4 °F 19.1 °F 8.6 °F 43% 30.31 in 10.0 mi North 10.4 mph - N/A   Unknown
8:55 PM 26.6 °F 19.1 °F 8.6 °F 47% 30.32 in 10.0 mi North 6.9 mph - N/A   Unknown
9:15 PM 26.6 °F 20.0 °F 8.6 °F 47% 30.32 in 10.0 mi North 5.8 mph - N/A   Unknown
9:35 PM 26.6 °F 20.0 °F 10.4 °F 51% 30.33 in 10.0 mi North 5.8 mph - N/A   Unknown
9:55 PM 26.6 °F 21.2 °F 8.6 °F 47% 30.34 in 10.0 mi North 4.6 mph - N/A   Unknown
10:15 PM 24.8 °F 17.9 °F 8.6 °F 50% 30.34 in 10.0 mi North 5.8 mph - N/A   Unknown
10:35 PM 24.8 °F 19.1 °F 10.4 °F 54% 30.34 in 10.0 mi North 4.6 mph - N/A   Unknown
10:55 PM 26.6 °F 20.0 °F 10.4 °F 51% 30.34 in 10.0 mi North 5.8 mph - N/A   Unknown
11:15 PM 24.8 °F - 10.4 °F 54% 30.34 in 10.0 mi Calm Calm - N/A   Unknown
11:35 PM 24.8 °F 20.5 °F 10.4 °F 54% 30.34 in 10.0 mi North 3.5 mph - N/A   Unknown
11:55 PM 24.8 °F 20.5 °F 10.4 °F 54% 30.34 in 10.0 mi North 3.5 mph - N/A   Unknown